Location: Unspecified
(24.7305°S, 0.0000°E)
Time: 01:29:52
(UTC+00:00)

Transit 4A - All Passes

Search period start: 04 April 2026 00:00
Search period end: 14 April 2026 00:00
Orbit: 863 x 978 km, 66.8° (Epoch: 29 March)

Date Brightness Start Highest point End Pass type
(mag) Time Alt. Az. Time Alt. Az. Time Alt. Az.
4 Apr - 03:53:46 10° N 03:59:27 37° ENE 04:05:03 10° SE visible
4 Apr - 05:40:37 10° WNW 05:45:42 26° WSW 05:50:44 10° S visible
4 Apr - 14:51:02 10° SSW 14:56:51 74° ESE 15:02:38 10° NNE daylight
5 Apr - 04:01:56 10° N 04:08:05 59° ENE 04:14:08 10° SSE visible
5 Apr - 05:50:51 10° W 05:54:39 17° WSW 05:58:25 10° SSW visible
5 Apr - 13:16:28 10° SSE 13:18:51 12° SE 13:21:12 10° E daylight
5 Apr - 14:59:46 10° SSW 15:05:32 69° WNW 15:11:18 10° NNE daylight
6 Apr - 04:10:29 10° NNW 04:16:47 88° WSW 04:22:57 10° SSE visible
6 Apr - 13:23:38 10° SSE 13:27:50 20° ESE 13:32:01 10° ENE daylight
6 Apr - 15:08:46 10° SW 15:14:10 41° WNW 15:19:35 10° N daylight
7 Apr - 02:36:12 10° NE 02:39:43 15° ENE 02:43:10 10° ESE visible
7 Apr - 04:19:22 10° NW 04:25:30 56° WSW 04:31:33 10° SSE visible
7 Apr - 13:31:35 10° S 13:36:43 32° ESE 13:41:50 10° NE daylight
7 Apr - 15:18:07 10° SW 15:22:45 25° WNW 15:27:24 10° NNW daylight
8 Apr - 02:43:14 10° NNE 02:48:16 26° ENE 02:53:13 10° SE visible
8 Apr - 04:28:39 10° NW 04:34:19 36° WSW 04:39:54 10° S visible
8 Apr - 13:39:53 10° S 13:45:32 51° ESE 13:51:10 10° NE daylight
8 Apr - 15:28:11 10° WSW 15:31:18 15° WNW 15:34:24 10° NW daylight
9 Apr - 02:51:03 10° N 02:56:52 41° ENE 03:02:35 10° SE visible
9 Apr - 04:38:22 10° WNW 04:43:11 23° WSW 04:47:57 10° S visible
9 Apr - 13:48:26 10° SSW 13:54:16 83° ESE 14:00:05 10° NNE daylight
10 Apr - 02:59:18 10° NNW 03:05:31 66° ENE 03:11:36 10° SSE visible
10 Apr - 04:48:51 10° W 04:52:10 15° WSW 04:55:27 10° SSW visible
10 Apr - 12:13:23 10° SSE 12:16:20 14° ESE 12:19:18 10° E daylight
10 Apr - 13:57:14 10° SSW 14:02:56 61° WNW 14:08:40 10° N daylight
11 Apr - 03:07:57 10° NNW 03:14:13 79° WSW 03:20:22 10° SSE visible
11 Apr - 12:20:49 10° S 12:25:19 23° ESE 12:29:46 10° ENE daylight
11 Apr - 14:06:17 10° SW 14:11:33 36° WNW 14:16:50 10° N daylight
12 Apr - 01:33:09 10° NE 01:37:06 18° ENE 01:41:01 10° ESE night (unlit)
12 Apr - 03:16:56 10° NW 03:22:58 50° WSW 03:28:54 10° S visible
12 Apr - 12:28:52 10° S 12:34:10 36° ESE 12:39:27 10° NE daylight
12 Apr - 14:15:46 10° WSW 14:20:08 22° WNW 14:24:31 10° NNW daylight
13 Apr - 01:40:25 10° NNE 01:45:41 29° ENE 01:50:50 10° SE night (unlit)
13 Apr - 03:26:18 10° NW 03:31:47 32° WSW 03:37:11 10° S visible
13 Apr - 12:37:14 10° SSW 12:42:57 58° ESE 12:48:41 10° NE daylight
13 Apr - 14:26:10 10° WSW 14:28:40 13° WNW 14:31:10 10° NW daylight
